Regional Weather Roundup
Issued by NWS Charleston, SC

Current Version | Previous Version | Text Only | Print | Product List | Glossary Off
Versions: 1 2 3 4 5 6 7 8 9 10 11 12 13 14 15 16 17 18 19 20 21 22 23 24 25 26 27 28 29 30 31 32 33 34 35 36 37 38 39 40 41 42 43 44 45 46 47 48 49 50
000 ASUS42 KCHS 312112 RWRCHS REGIONAL WEATHER ROUNDUP NATIONAL WEATHER SERVICE CHARLESTON SC 500 PM EDT FRI JUL 31 2015 NOTE: "FAIR" INDICATES FEW OR NO CLOUDS BELOW 12,000 FEET WITH NO SIGNIFICANT WEATHER AND/OR OBSTRUCTIONS TO VISIBILITY. NOT ALL STATIONS ARE QUALITY CONTROLLED BY THE NATIONAL WEATHER SERVICE. USE DATA WITH CAUTION...ESPECIALLY DEWPOINT OBSERVATIONS. SCZ027-030-031-034>040-042>050-312200- ...SOUTHEAST SOUTH CAROLINA... CITY SKY/WX TMP DP RH WIND PRES REMARKS N CHARLESTON PTSUNNY 87 76 69 S8 29.89S HX 97 WATERFRONT PRK N/A 86 79 79 SW7 29.87F HX 99 MOUNT PLEASANT N/A 88 79 74 S7 29.89S HX 102 JOHNS ISLAND FAIR 86 79 79 S15 29.90S HX 99 PINOPOLIS NOT AVBL MONCKS CORNER FAIR 93 75 55 CALM 29.87F HX 104 SUMMERVILLE TSTM 81 77 89 S9G20 29.91R BEAUFORT MCAS CLOUDY 81 73 76 SW8 29.91S BEAUFORT ARPT MOCLDY 82 79 89 SW5 29.91S FOG HX 93 HILTON HEAD IS PTSUNNY 82 77 83 SW8 29.92S THUNDER HX 91 WALTERBORO TSTM 77 72 83 CALM 29.91S ALLENDALE MOCLDY 84 72 65 SW9 29.90R ...SOUTHERN MIDLANDS AND PEE DEE... CITY SKY/WX TMP DP RH WIND PRES REMARKS GEORGETOWN NOT AVBL KINGSTREE NOT AVBL ORANGEBURG MOSUNNY 93 69 45 E6 29.88F HX 98 BARNWELL FAIR 93 73 52 CALM 29.89F HX 102 AIKEN FAIR 93 61 33 SE5 29.93F HX 93 MANNING RAIN 91 68 46 S5 29.87F HX 95 COLUMBIA MOSUNNY 97 63 32 VRB7 29.88S HX 98 SUMTER PTSUNNY 93 68 43 N3 29.86F HX 97 FLORENCE MOSUNNY 95 69 42 VRB6 29.87F HX 100 MYRTLE BEACH MOSUNNY 90 75 62 S12 29.89F HX 100 N MYRTLE BEACH MOSUNNY 87 76 69 S10 29.88F HX 97 $$ GAZ063-065-086>088-099>101-113>116-118-119-134>141-150-312200- ...SOUTHEAST GEORGIA... CITY SKY/WX TMP DP RH WIND PRES REMARKS SAVANNAH ARPT TSTM 76 74 93 CALM 29.91F HUNTER AAF CLOUDY 78 74 88 W5 29.89F FORT STEWART NOT AVBL STATESBORO CLOUDY 74 32 21 CALM 29.90F SYLVANIA CLOUDY 77 75 92 CALM 29.92F CLAXTON NOT AVBL ...CSRA...CENTRAL AND FAR SOUTHEAST GEORGIA... CITY SKY/WX TMP DP RH WIND PRES REMARKS THOMSON SUNNY 96 71 44 N8 29.93F HX 103 AUGUSTA-BUSH SUNNY 95 70 44 E7 29.87F HX 101 AUGUSTA-DANIEL MOSUNNY 93 67 42 VRB5 29.89F HX 96 SWAINSBORO FAIR 81 81 100 SE7 29.93R HX 91 VIDALIA CLOUDY 79 77 94 E10 29.93R EASTMAN TSTM 78 76 94 NE3 29.90F HAZLEHURST FAIR 90 76 64 CALM 29.89R HX 101 ALMA PTSUNNY 90 75 61 CALM 29.88F HX 100 WAYCROSS MOSUNNY 96 78 55 CALM 29.87F HX 112 JESUP CLOUDY 88 79 74 E9 29.89S HX 102 BAXLEY PTSUNNY 91 75 59 CALM 29.89R HX 102 BRUNSWICK CLOUDY 88 77 70 SE13 29.90F THUNDER HX 100 SAINT SIMONS CLOUDY 86 76 71 SE13G20 29.89F HX 96 $$ SCZ027-028-034-036>038-045-046-048>050-GAZ119-141-312200- ...LAKE AND SUPPLEMENTAL COASTAL OBSERVATIONS... STATION/POSITION TIME TEMP WIND PRES WAVE SWELL AIR SEA DIR/SP/G HT/PER HT/PER/DIR (UTC) (F) (DEG/KT/KT) (MB) (FT/S) (FT/S/D) UPR LAKE MARION NOT AVBL WINYAH BAY 1945 85 110/ 6 1012.0 LAKE MURRAY 2000 91 90/ 6/ 10 1011.5F ACE BASIN NERRS NOT AVBL FORT PULASKI 2000 83 87 210/ 5/ 7 1013.4F SAPELO ISLAND 2000 88 130/ 9 1013.0S $$ ANZ835-935-AMZ111-154-330-350-352-354-370-450-454-472-312200- ...C-MAN AND BUOY OBSERVATIONS... STATION/POSITION TIME TEMP WIND PRES WAVE SWELL AIR SEA DIR/SP/G HT/PER HT/PER/DIR (UTC) (F) (DEG/KT/KT) (MB) (FT/S) (FT/S/D) BUOY 41004 2050 82 85 200/ 14/ 14 1012.4F 3/ 7 2/ 7 BUOY 41008 2050 82 83 160/ 12/ 14 1013.1F 2/ 5 2/110/ 7 FOLLY BEACH CMAN 2000 82 210/ 12/ 13 1012.6F CAPERS NEARSHORE 2008 82 230/ 12/ 16 1012.5F FRIPP NEARSHORE NOT AVBL STATION/POSITION TIME TEMP WIND PRES WAVE SWELL AIR SEA DIR/SP/G HT/PER HT/PER/DIR (UTC) (F) (DEG/KT/KT) (MB) (FT/S) (FT/S/D) 5E ST. MARYS GA 2021 85 N/A 2/ 4 FRYING PAN BUOY 2050 84 85 240/ 10/ 12 1012.7F 3/ 6 2/180/ 6 BUOY 41025 2050 81 86 20/ 10/ 12 1011.5F 3/ 8 3/170/ 8 CAPE LOOKOUT NC 2000 85 230/ 10/ 14 1011.1F BUOY 41002 2050 81 81 220/ 19/ 23 1015.2R 7/ 8 2/ 20/17 BUOY 41010 2020 83 84 160/ 12/ 14 1016.4F ST AUGUSTINE FL 2100 83 84 140/ 13/ 15 1014.0R $$

USA.gov is the U.S. government's official web portal to all federal, state and local government web resources and services.